RYR76 LEPA-EPKK

Flight info

Callsign RYR76
Flight time N/A
Altitude 36000
Route ISTER DCT LUNOR DCT NESUL DCT NEGAT DCT OMEDA DCT RAPUR DCT TORTU DCT ERTEV DCT OSBUL DCT IBUPU DCT ROKIB DCT MALUG DCT INGID DCT GAMLI DCT STO DCT LEDVA DCT NETIR
Aircraft B738/M-SDE2E3FGHIRWXY/LB1

Departure

Time N/A
Airport Palma de Mallorca Airport (LEPA)

Arrival

Time 2026-05-04 20:23
Airport Kraków John Paul II International Airport (EPKK)
Time Latitude Longitude Altitude Speed Heading
2026-05-04 19:20 46.27837 12.09059 35076 ft 455 kts 37°
2026-05-04 19:21 46.32756 12.14841 35067 ft 454 kts 37°
2026-05-04 19:21 46.37652 12.20610 35071 ft 453 kts 38°
2026-05-04 19:22 46.42540 12.26383 35087 ft 452 kts 38°
2026-05-04 19:22 46.47419 12.32159 35090 ft 453 kts 38°
2026-05-04 19:23 46.52010 12.38344 35085 ft 455 kts 50°
2026-05-04 19:23 46.55923 12.45584 35101 ft 456 kts 52°
2026-05-04 19:24 46.59790 12.52933 35093 ft 458 kts 52°
2026-05-04 19:24 46.63697 12.60275 35086 ft 459 kts 51°
2026-05-04 19:25 46.67629 12.67605 35073 ft 460 kts 51°
2026-05-04 19:25 46.71577 12.74957 35070 ft 460 kts 51°
2026-05-04 19:26 46.75517 12.82313 35070 ft 460 kts 52°
2026-05-04 19:26 46.79429 12.89639 35066 ft 460 kts 52°
2026-05-04 19:27 46.83358 12.97018 35064 ft 460 kts 52°
2026-05-04 19:27 46.87284 13.04413 35055 ft 459 kts 52°
2026-05-04 19:28 46.91189 13.11787 35055 ft 458 kts 52°
2026-05-04 19:28 46.95079 13.19151 35053 ft 457 kts 52°
2026-05-04 19:29 46.98960 13.26520 35038 ft 457 kts 52°
2026-05-04 19:29 47.02807 13.33843 35036 ft 456 kts 52°
2026-05-04 19:30 47.06677 13.41228 35026 ft 457 kts 52°
2026-05-04 19:30 47.10545 13.48630 35023 ft 456 kts 52°
2026-05-04 19:31 47.14403 13.56032 35025 ft 456 kts 52°
2026-05-04 19:31 47.18254 13.63441 35013 ft 456 kts 52°
2026-05-04 19:32 47.22101 13.70863 35010 ft 456 kts 52°
2026-05-04 19:32 47.25939 13.78288 35013 ft 456 kts 52°
2026-05-04 19:33 47.29782 13.85741 35005 ft 457 kts 52°
2026-05-04 19:33 47.33622 13.93209 34985 ft 457 kts 52°
2026-05-04 19:34 47.37177 14.00142 34984 ft 456 kts 52°
2026-05-04 19:34 47.41021 14.07658 34985 ft 456 kts 52°
2026-05-04 19:35 47.44814 14.15093 34976 ft 455 kts 53°
2026-05-04 19:35 47.48617 14.22568 34967 ft 454 kts 53°
2026-05-04 19:36 47.52405 14.30035 34961 ft 453 kts 53°
2026-05-04 19:36 47.56179 14.37495 34954 ft 452 kts 53°
2026-05-04 19:37 47.59938 14.44946 34952 ft 450 kts 53°
2026-05-04 19:37 47.63682 14.52384 34943 ft 450 kts 53°
2026-05-04 19:38 47.67410 14.59813 34938 ft 449 kts 53°
2026-05-04 19:38 47.71131 14.67248 34941 ft 449 kts 53°
2026-05-04 19:39 47.74854 14.74708 34938 ft 449 kts 53°
2026-05-04 19:39 47.78573 14.82180 34937 ft 450 kts 53°
2026-05-04 19:40 47.82272 14.89631 34929 ft 450 kts 53°
2026-05-04 19:40 47.85994 14.97149 34930 ft 451 kts 53°
2026-05-04 19:41 47.89715 15.04688 34922 ft 451 kts 53°
2026-05-04 19:41 47.93438 15.12250 34922 ft 451 kts 53°
2026-05-04 19:42 47.97149 15.19808 34924 ft 452 kts 53°
2026-05-04 19:42 48.00833 15.27334 34921 ft 452 kts 53°
2026-05-04 19:43 48.04535 15.34916 34924 ft 451 kts 53°
2026-05-04 19:43 48.08231 15.42508 34917 ft 451 kts 53°
2026-05-04 19:44 48.11919 15.50104 34919 ft 451 kts 53°
2026-05-04 19:44 48.15602 15.57711 34917 ft 451 kts 53°
2026-05-04 19:45 48.19277 15.65324 34909 ft 450 kts 53°
2026-05-04 19:45 48.22946 15.72943 34915 ft 450 kts 53°
2026-05-04 19:46 48.26606 15.80566 34915 ft 450 kts 53°
2026-05-04 19:46 48.29648 15.86920 34917 ft 451 kts 53°
2026-05-04 19:47 48.33302 15.94569 34910 ft 451 kts 53°
2026-05-04 19:47 48.36957 16.02243 34913 ft 451 kts 53°
2026-05-04 19:48 48.40614 16.09945 34917 ft 452 kts 53°
2026-05-04 19:48 48.44263 16.17649 34916 ft 452 kts 53°
2026-05-04 19:49 48.47883 16.25315 34921 ft 452 kts 53°
2026-05-04 19:49 48.51528 16.33054 34922 ft 453 kts 53°
2026-05-04 19:50 48.55174 16.40821 34926 ft 453 kts 53°
2026-05-04 19:50 48.58809 16.48585 34933 ft 453 kts 53°
2026-05-04 19:51 48.62437 16.56357 34939 ft 452 kts 53°
2026-05-04 19:51 48.66037 16.64091 34933 ft 452 kts 53°
2026-05-04 19:52 48.69653 16.71880 34946 ft 451 kts 53°
2026-05-04 19:52 48.73262 16.79648 34947 ft 450 kts 52°
2026-05-04 19:53 48.77054 16.87107 34962 ft 449 kts 49°
2026-05-04 19:53 48.80956 16.94495 34956 ft 448 kts 49°
2026-05-04 19:54 48.84834 17.01897 34957 ft 448 kts 50°
2026-05-04 19:54 48.88684 17.09328 34961 ft 447 kts 50°
2026-05-04 19:55 48.92519 17.16778 34968 ft 447 kts 50°
2026-05-04 19:55 48.96350 17.24244 34970 ft 446 kts 50°
2026-05-04 19:56 49.00166 17.31699 34980 ft 446 kts 50°
2026-05-04 19:56 49.03979 17.39167 34980 ft 445 kts 50°
2026-05-04 19:57 49.07687 17.46458 34965 ft 427 kts 50°
2026-05-04 19:57 49.11309 17.53591 34972 ft 424 kts 50°
2026-05-04 19:57 49.13102 17.57126 34649 ft 426 kts 50°
2026-05-04 19:58 49.14902 17.60683 34353 ft 421 kts 50°
2026-05-04 19:58 49.16684 17.64209 33974 ft 418 kts 50°
2026-05-04 19:58 49.18454 17.67717 33569 ft 415 kts 50°
2026-05-04 19:58 49.20210 17.71200 33178 ft 412 kts 50°
2026-05-04 19:59 49.21955 17.74666 32802 ft 408 kts 50°
2026-05-04 19:59 49.23678 17.78095 32433 ft 405 kts 50°
2026-05-04 19:59 49.25391 17.81505 32065 ft 402 kts 50°
2026-05-04 19:59 49.27089 17.84891 31714 ft 399 kts 50°
2026-05-04 20:00 49.28772 17.88252 31353 ft 396 kts 50°
2026-05-04 20:00 49.30447 17.91600 31005 ft 394 kts 51°
2026-05-04 20:00 49.32105 17.94919 30654 ft 391 kts 51°
2026-05-04 20:00 49.33734 17.98184 30310 ft 389 kts 51°
2026-05-04 20:01 49.35371 18.01469 29954 ft 387 kts 51°
2026-05-04 20:01 49.36999 18.04739 29545 ft 384 kts 51°
2026-05-04 20:01 49.38615 18.07991 29170 ft 381 kts 51°
2026-05-04 20:01 49.40224 18.11230 28661 ft 383 kts 51°
2026-05-04 20:02 49.41838 18.14482 28186 ft 383 kts 51°
2026-05-04 20:02 49.43451 18.17740 27702 ft 383 kts 51°
2026-05-04 20:02 49.45063 18.20998 27243 ft 383 kts 51°
2026-05-04 20:02 49.46675 18.24261 26785 ft 382 kts 51°
2026-05-04 20:03 49.48282 18.27516 26333 ft 382 kts 51°
2026-05-04 20:03 49.49886 18.30771 25892 ft 382 kts 51°
2026-05-04 20:03 49.51491 18.34032 25442 ft 382 kts 51°
2026-05-04 20:03 49.53096 18.37296 25018 ft 381 kts 52°
2026-05-04 20:04 49.54697 18.40557 24588 ft 381 kts 52°
2026-05-04 20:04 49.56294 18.43813 24146 ft 381 kts 52°
2026-05-04 20:04 49.57892 18.47076 23711 ft 382 kts 52°
2026-05-04 20:04 49.59489 18.50341 23223 ft 382 kts 52°
2026-05-04 20:05 49.61067 18.53570 22710 ft 381 kts 52°
2026-05-04 20:05 49.62665 18.56844 22211 ft 382 kts 52°
2026-05-04 20:05 49.64258 18.60111 21715 ft 382 kts 52°
2026-05-04 20:05 49.65843 18.63409 21229 ft 381 kts 56°
2026-05-04 20:06 49.67195 18.66936 20746 ft 381 kts 61°
2026-05-04 20:06 49.68438 18.70566 20273 ft 381 kts 63°
2026-05-04 20:06 49.69650 18.74209 19812 ft 381 kts 63°
2026-05-04 20:06 49.70842 18.77795 19353 ft 381 kts 63°
2026-05-04 20:07 49.72060 18.81430 18902 ft 380 kts 63°
2026-05-04 20:07 49.73283 18.85049 18461 ft 380 kts 63°
2026-05-04 20:07 49.74514 18.88673 17876 ft 382 kts 63°
2026-05-04 20:07 49.75753 18.92310 17319 ft 383 kts 63°
2026-05-04 20:08 49.76998 18.95965 16754 ft 384 kts 63°
2026-05-04 20:08 49.78246 18.99627 16193 ft 385 kts 63°
2026-05-04 20:08 49.79495 19.03295 15643 ft 386 kts 63°
2026-05-04 20:08 49.80747 19.06978 15102 ft 386 kts 63°
2026-05-04 20:09 49.81996 19.10659 14573 ft 387 kts 63°
2026-05-04 20:09 49.83246 19.14349 14035 ft 387 kts 63°
2026-05-04 20:09 49.84498 19.18047 13492 ft 386 kts 63°
2026-05-04 20:09 49.85740 19.21724 13098 ft 381 kts 63°
2026-05-04 20:10 49.86959 19.25336 12731 ft 376 kts 63°
2026-05-04 20:10 49.88159 19.28900 12370 ft 371 kts 63°
2026-05-04 20:10 49.89345 19.32423 12021 ft 366 kts 63°
2026-05-04 20:10 49.90499 19.35861 11669 ft 361 kts 63°
2026-05-04 20:11 49.91650 19.39290 11324 ft 356 kts 63°
2026-05-04 20:11 49.92788 19.42685 10988 ft 352 kts 63°
2026-05-04 20:11 49.93912 19.46044 10647 ft 349 kts 63°
2026-05-04 20:11 49.94951 19.49416 10301 ft 344 kts 72°
2026-05-04 20:12 49.95179 19.50617 10190 ft 342 kts 78°
2026-05-04 20:12 49.95554 19.53583 10055 ft 330 kts 81°
2026-05-04 20:12 49.95970 19.57001 9936 ft 312 kts 81°
2026-05-04 20:13 49.96383 19.60202 9852 ft 294 kts 80°
2026-05-04 20:13 49.96799 19.63355 9296 ft 299 kts 79°
2026-05-04 20:13 49.97225 19.66525 8903 ft 300 kts 79°
2026-05-04 20:13 49.97654 19.69698 8598 ft 299 kts 79°
2026-05-04 20:14 49.98078 19.72845 8294 ft 297 kts 79°
2026-05-04 20:14 49.98503 19.75983 7997 ft 296 kts 79°
2026-05-04 20:14 49.98927 19.79106 7699 ft 295 kts 79°
2026-05-04 20:14 49.99343 19.82178 7410 ft 293 kts 79°
2026-05-04 20:15 49.99762 19.85277 7121 ft 292 kts 79°
2026-05-04 20:15 50.00179 19.88360 6839 ft 291 kts 79°
2026-05-04 20:15 50.00593 19.91413 6669 ft 285 kts 79°
2026-05-04 20:15 50.00995 19.94389 6534 ft 278 kts 78°
2026-05-04 20:16 50.01386 19.97290 6409 ft 271 kts 79°
2026-05-04 20:16 50.01768 20.00125 6226 ft 266 kts 79°
2026-05-04 20:16 50.02147 20.02919 6029 ft 262 kts 79°
2026-05-04 20:16 50.02521 20.05677 5799 ft 260 kts 79°
2026-05-04 20:17 50.03084 20.08328 5527 ft 259 kts 56°
2026-05-04 20:17 50.04350 20.10219 5313 ft 252 kts 25°
2026-05-04 20:17 50.05998 20.10921 5074 ft 243 kts 358°
2026-05-04 20:17 50.07655 20.10662 4847 ft 237 kts 345°
2026-05-04 20:18 50.09258 20.10136 4599 ft 235 kts 342°
2026-05-04 20:18 50.10753 20.09251 4317 ft 225 kts 314°
2026-05-04 20:18 50.11503 20.07304 4201 ft 206 kts 274°
2026-05-04 20:18 50.11427 20.05164 3973 ft 198 kts 261°
2026-05-04 20:19 50.11208 20.03096 3724 ft 188 kts 257°
2026-05-04 20:19 50.10947 20.01146 3473 ft 178 kts 256°
2026-05-04 20:19 50.10693 19.99338 3255 ft 164 kts 256°
2026-05-04 20:19 50.10461 19.97698 3039 ft 148 kts 256°
2026-05-04 20:20 50.10245 19.96163 2868 ft 145 kts 256°
2026-05-04 20:20 50.10028 19.94625 2685 ft 145 kts 256°
2026-05-04 20:20 50.09812 19.93087 2482 ft 144 kts 256°
2026-05-04 20:20 50.09602 19.91592 2332 ft 138 kts 256°
2026-05-04 20:21 50.09399 19.90141 2125 ft 139 kts 256°
2026-05-04 20:21 50.09188 19.88638 1939 ft 145 kts 256°
2026-05-04 20:21 50.08748 19.85505 1460 ft 153 kts 256°
2026-05-04 20:22 50.08525 19.83885 1231 ft 152 kts 258°
2026-05-04 20:22 50.08300 19.82298 1056 ft 151 kts 255°
2026-05-04 20:22 50.08087 19.80721 918 ft 146 kts 256°
2026-05-04 20:22 50.07872 19.79208 801 ft 136 kts 258°
2026-05-04 20:23 50.07711 19.78044 797 ft 79 kts 257°
2026-05-04 20:23 50.07631 19.77479 798 ft 43 kts 257°
2026-05-04 20:23 50.07570 19.77052 801 ft 38 kts 259°
2026-05-04 20:23 50.07494 19.76847 801 ft 16 kts 180°
2026-05-04 20:24 50.07376 19.76879 799 ft 17 kts 167°
2026-05-04 20:24 50.07305 19.76970 799 ft 10 kts 82°
2026-05-04 20:24 50.07325 19.77083 799 ft 15 kts 77°
2026-05-04 20:24 50.07344 19.77219 799 ft 24 kts 78°
2026-05-04 20:25 50.07408 19.77681 799 ft 41 kts 78°
2026-05-04 20:25 50.07475 19.78161 799 ft 49 kts 78°
2026-05-04 20:25 50.07551 19.78713 799 ft 55 kts 78°
2026-05-04 20:25 50.07631 19.79277 799 ft 54 kts 77°
2026-05-04 20:26 50.07687 19.79685 799 ft 19 kts 78°
2026-05-04 20:26 50.07703 19.79813 799 ft 9 kts 89°
2026-05-04 20:26 50.07660 19.79878 799 ft 9 kts 170°
2026-05-04 20:26 50.07597 19.79896 799 ft 9 kts 165°
2026-05-04 20:27 50.07534 19.79922 799 ft 10 kts 165°
2026-05-04 20:27 50.07469 19.79947 799 ft 9 kts 167°
2026-05-04 20:27 50.07410 19.79984 799 ft 9 kts 135°
2026-05-04 20:27 50.07399 19.80076 799 ft 6 kts 116°
2026-05-04 20:28 50.07358 19.80096 799 ft 6 kts 170°
2026-05-04 20:28 50.07340 19.80102 799 ft 2 kts 167°
2026-05-04 20:28 50.07330 19.80105 799 ft 0 kts 167°